Regional Weather Roundup
Issued by NWS Newport/Morehead, NC

Current Version | Previous Version | Text Only | Print | Product List | Glossary Off
Versions: 1 2 3 4 5 6 7 8 9 10 11 12 13 14 15 16 17 18 19 20 21 22 23 24 25 26 27 28 29 30 31 32 33 34 35 36 37 38 39 40 41 42 43 44 45 46 47 48 49 50
000 ASUS42 KMHX 262125 RWRMHX WEATHER ROUNDUP FOR EASTERN NORTH CAROLINA NATIONAL WEATHER SERVICE NEWPORT/MOREHEAD CITY NC 500 PM EDT TUE MAY 26 2015 NOTE: "FAIR" INDICATES FEW OR NO CLOUDS BELOW 12,000 FEET WITH NO SIGNIFICANT WEATHER AND/OR OBSTRUCTIONS TO VISIBILITY NCZ015>017-031-032-045>047-102-103-262200- NORTH COAST CITY SKY/WX TMP DP RH WIND PRES REMARKS EDENTON N/A 82 69 66 S15 30.23F ELIZABETH CITY MOSUNNY 81 68 64 SE15G22 30.24F KITTY HAWK CLEAR 78 65 63 S8G18 30.26F MANTEO MOSUNNY 77 67 69 S18G26 30.28F $$ NCZ045>047-081-094-103-104-262200- CENTRAL COAST CITY SKY/WX TMP DP RH WIND PRES REMARKS FRISCO SUNNY 78 63 59 S14 30.30F SWANQUARTER N/A 79 N/A N/A S16G24 30.24S $$ NCZ095-097-098-100-101-262200- SOUTHERN COAST CITY SKY/WX TMP DP RH WIND PRES REMARKS BEAUFORT SUNNY 78 68 71 S14G21 30.28F CEDAR ISLAND N/A 79 N/A N/A S9G23 30.33S JACKSONVILLE CLOUDY 79 68 69 S13 30.25F PINEY ISLAND PTCLDY N/A N/A N/A SE18G26 30.28F WILMINGTON PTSUNNY 79 70 74 SE12G23 30.24F $$ NCZ011>013-027>030-043-044-078>080-089-090>093-098-262200- COASTAL PLAIN CITY SKY/WX TMP DP RH WIND PRES REMARKS AHOSKIE MOSUNNY 83 65 54 S3 30.21F CLINTON SUNNY 83 74 73 SE6 30.22F ELIZABETHTOWN MOSUNNY 82 74 77 E5 30.21F GOLDSBORO PTSUNNY 85 71 62 S10 30.19F GREENVILLE MOSUNNY 86 64 48 S7G16 30.22F HAVELOCK MOSUNNY 81 68 64 SE15 30.27F KENANSVILLE PTSUNNY 80 70 70 SE8 30.24F KINSTON PTSUNNY 82 68 61 S13 30.23F NEW BERN MOSUNNY 82 68 62 S15 30.26F RICHLANDS CLOUDY 81 66 61 SE12G20 30.25F ROCKY MOUNT MOSUNNY 87 66 49 SE8 30.20F WASHINGTON SUNNY 85 68 55 S7 30.23F WHITEVILLE MOSUNNY 84 69 60 SE10G16 30.21S $$ AMZ130-135-150-152-154-156-158-170-250-252-270-ANZ085-086-088-633-658-670-262200- MARINE OBSERVATIONS STATION/POSITION TIME TEMP WIND PRES WAVE SWELL AIR SEA DIR/SP/G HT/PER HT/PER (UTC) (F) (DEG/KT/KT) (MB) (FT/S) (FT/S) CHESAPEAKE LIGHT 2100 70 170/ 27/ 29 1023.7 64 E VA BEACH 2050 68 65 170/ 12/ 14 1025.0 3/ 5 2/ 7 DUCK 2100 74 63 160/ 20/ 23 1023.4 2 E DUCK 2111 65 N/A 3/ 5 OREGON INLET 2100 77 79 170/ 13/ 18 1025.7 13E OREGON INLT 2100 69 N/A 3/ 5 HATTERAS CG 2100 77 76 160/ 12/ 17 1025.5 DIAMOND BUOY 2050 75 77 160/ 16/ 17 1026.0 3/ 7 2/ 7 CAPE LOOKOUT 2100 75 150/ 14/ 15 1025.2 BEAUFORT LAB 2100 77 76 170/ 12/ 15 1024.5 27 SE WRIGHTSVLE 2100 73 76 170/ 12/ 16 N/A 5 SE WRIGHTSVLE 2008 77 77 160/ 16/ 21 1024.7 225 S CAPE HAT 2050 74 75 110/ 12/ 14 1026.4 3/ 7 2/ 7 41 SE CHARLESTON 2050 75 77 60/ 10/ 12 1023.3 3/ 6 3/ 6 $$

USA.gov is the U.S. government's official web portal to all federal, state and local government web resources and services.